Weather Roundup
Issued by NWS Chicago, IL

Home | Current Version | Previous Version | Text Only | Print | Product List | Glossary Off
Versions: 1 2 3 4 5 6 7 8 9 10 11 12 13 14 15 16 17 18 19 20 21 22 23 24 25 26 27 28 29 30 31 32 33 34 35 36 37 38 39 40 41 42 43 44 45 46 47 48 49 50

000
NZUS59 KLOT 280909
HRRLOT

CHICAGO AREA WEATHER ROUNDUP
NATIONAL WEATHER SERVICE CHICAGO/ROMEOVILLE IL
400 AM CDT FRI JUL 28 2017

NOTE: "FAIR" INDICATES FEW OR NO CLOUDS BELOW 12,000 FEET WITH NO
SIGNIFICANT WEATHER AND/OR OBSTRUCTIONS TO VISIBILITY.

* THESE STATIONS ARE NOT UNDER NWS QUALITY CONTROL. THEY ALSO MAY NOT
  REPORT WEATHER SUCH AS PRECIPITATION OR FOG.

ILZ005-006-012>014-019>023-281000-
NORTHEAST ILLINOIS

CITY           SKY/WX    TMP DP  RH WIND       PRES   REMARKS
OHARE          PTCLDY    69  63  81 N13       29.94S
MIDWAY         PTCLDY    71  65  81 N13       29.92F
AURORA         CLEAR     65  61  87 NE8       29.95F
LANSING*       PTCLDY    71  63  75 N6        29.91F
JOLIET*        CLEAR     69  64  85 N6        29.92F
WAUKEGAN       CLEAR     67  64  90 NE10G17   29.96S
DUPAGE AIRPORT CLEAR     63  61  93 N7        29.94F
WHEELING       CLEAR     68  65  90 N7        29.96F
MORRIS*        CLEAR     64  61  90 CALM      29.91F
LEWIS AIRPORT* CLOUDY    67  61  83 N10       29.92F
$$

WIZ051-052-058>065-066-070>072-281000-
SOUTHEAST WISCONSIN

CITY           SKY/WX    TMP DP  RH WIND       PRES   REMARKS
MILWAUKEE      PTCLDY    68  64  87 N9        29.99S
KENOSHA*       CLEAR     66  62  87 NE7       29.98S
RACINE*        CLEAR     67  64  90 NE9       29.99F
WAUKESHA       CLEAR     59  55  88 N6        30.02R
WEST BEND      CLOUDY    63  59  88 N7        30.03S
$$

INZ001>003-010>013-019-020-281000-
NORTHWEST INDIANA

CITY           SKY/WX    TMP DP  RH WIND       PRES   REMARKS
GARY*          CLEAR     73  66  78 NE10      29.92S
MICHIGAN CITY* NOT AVBL
RENSSELAER*    NOT AVBL
VALPARAISO     LGT RAIN  70  67  90 E6        29.91S FOG
$$

LMZ740>746-281000-
SOUTHERN LAKE MICHIGAN

STATION/POSITION TIME  SKY/WX   TEMP WIND        PRES    VSBY
                                AIR  DIR/SP/G
                 (UTC)          (F)  (DEG/KT/KT) (MB)    (MI)
HARRISON CRIB    0840            72  360/ 18/ 19   N/A
BURNHAM HARBOR   0900            70                N/A
CALUMET HARBOR   0842            71  350/  8/ 12 1012.8F
BURNS HARBOR     0840            73   50/ 15/ 18 1013.2S
MICHIGAN CITY    0840            71   50/ 14/ 16   N/A
$$

ABBREVIATIONS USED IN REMARKS
   TC - TEMPERATURE IN CELSIUS
  WCI - WIND CHILL INDEX
   HX - HEAT INDEX
  VSB - VISIBILITY
$$




USA.gov is the U.S. government's official web portal to all federal, state and local government web resources and services.